• Join FlightAware (Why Join?)
  • Login
  • US Flag 
07:32PM EST


 

Airport Tracker/Info


-or-


 

Live Flight TrackerFlight Track Log ✈ CHQ5046 ✈ 26-Apr-2013 ✈ KORD - KAZO

Flight Track Log - Related Links

Times and Time Zones

All times are in EDT time to prevent confusion due to time zone crossing. See the CHQ5046 flight status page for this flight to view local times or setup timezone preferences in your user account.

Time Position Orientation Groundspeed Altitude Reporting Facility
EDT Latitude Longitude Course Direction KTS MPH feet Rate Location/Type
06:40PM 41.9167 -87.8667 78° East 214 246 3,200  Level Chicago TRACON
06:41PM 41.9333 -87.7667 77° East 247 284 5,000 1,095 Climbing Chicago TRACON
06:42PM 41.9500 -87.6667 77° East 267 307 5,500 1,455 Climbing Chicago TRACON
06:43PM 41.9667 -87.5667 77° East 290 334 8,200 2,143 Climbing Chicago TRACON
06:44PM 42.0000 -87.4500 69° East 301 346 10,000 947 Climbing Chicago TRACON
06:45PM 42.0578 -87.3273 78° East  Level FlightAware Approximate
06:45PM 42.0333 -87.3667 62° Northeast 287 330 10,000  Level Chicago TRACON
06:46PM 42.0508 -87.2869 74° East 285 328 10,000 -53 Level Chicago Center
06:47PM 42.0681 -87.1883 77° East 272 313 9,900  Descending Chicago Center
06:48PM 42.0789 -87.0917 81° East 262 302 10,000 96 Climbing Chicago Center
06:49PM 42.0889 -86.9956 82° East 261 300 10,100 48 Climbing Chicago Center
06:50PM 42.1022 -86.8772 81° East 266 306 10,100 -435 Level Chicago Center
06:51PM 42.1111 -86.7767 83° East 271 312 9,200  Descending Chicago Center
06:52PM 42.1222 -86.6753 82° East 272 313 10,100 387 Climbing Chicago Center
06:53PM 42.1319 -86.5742 83° East 273 314 10,000 -145 Descending Chicago Center
06:54PM 42.1428 -86.4722 82° East 275 316 9,800 -774 Descending Chicago Center
06:55PM 42.1533 -86.3708 82° East 275 316 8,400 -1,403 Descending Chicago Center
06:56PM 42.1631 -86.2697 83° East 273 314 6,900 -1,548 Descending Chicago Center
06:57PM 42.1919 -86.1550 71° East 269 310 5,200 -919 Descending Chicago Center
06:58PM 42.2150 -86.0661 71° East 259 298 5,000 -290 Descending Chicago Center
06:59PM 42.2369 -85.9792 71° East 249 287 4,600 -919 Descending Chicago Center
07:00PM 42.2606 -85.8908 70° East 249 287 3,100 -1,016 Descending Chicago Center
07:01PM 42.2867 -85.7942 70° East 249 287 2,500 -288 Descending Chicago Center
07:02PM 42.3094 -85.7089 70° East 245 282 2,500  Level Chicago Center
07:03PM 42.3264 -85.6256 75° East 237 273 2,500 -48 Level Chicago Center
07:04PM 42.3219 -85.5700 96° East 175 201 2,400 -290 Descending Chicago Center
07:05PM 42.2886 -85.5614 169° South 129 148 1,900 -484 Descending Chicago Center
07:06PM 42.2519 -85.5547 172° South 118 136 1,400 -484 Descending Chicago Center
07:08PM 42.2333 -85.5500 172° South  Level FlightAware Approximate